Date String (YYYY-MM-DD hh:mm:ss) UTC,Instrument flags,absolute air pressure of the measurement (hPa),sample flow rate (lpm),inlet stack bypass flow (lpm),air temperature of the measurement (°C),ambient temperature measured by the external sensor (°C),aerosol sample conditioner tube jacket temperature (°C),OPC LED temperature (°C),internal box temperature (°C),relative humidity of the measurement (%),span deviation,mass concentration of particles derived from Lorenz-Mie calculation of OPC scattering (μg/m³),mass concentration of particles derived from Lorenz-Mie calculation of OPC scattering (μg/m³),mass concentration of particles derived from Lorenz-Mie calculation of OPC scattering (μg/m³)
DateTimeUTC,F1_M11,P_M11,Q1_M11,Q2_M11,T1_M11,T2_M11,T3_M11,T4_M11,T5_M11,U1_M11,ZSPAN_M11,X0_M11,X2_M11,X1_M11
2023-09-21 18:00:00,SystemResetWarning,0828.3,5.00,000.00,027.8,024.3,000.0,036.1,029.0,21.1,0000.0,0007.53,0003.29,0002.28
2023-09-21 18:01:00,SystemResetWarning,0828.3,5.01,000.00,027.8,024.2,000.0,036.1,029.0,21.8,0000.0,0007.57,0003.35,0002.30
2023-09-21 18:02:00,SystemResetWarning,0828.4,5.01,000.00,027.7,024.5,000.0,036.1,029.0,21.6,0000.0,0007.59,0003.36,0002.31
2023-09-21 18:03:00,SystemResetWarning,0828.3,4.99,000.00,027.7,024.9,000.0,036.1,029.0,21.4,0000.0,0007.54,0003.36,0002.33
2023-09-21 18:04:00,SystemResetWarning,0828.3,5.00,000.00,027.7,025.3,000.0,036.1,029.1,21.4,0000.0,0007.59,0003.35,0002.34
2023-09-21 18:05:00,SystemResetWarning,0828.4,5.01,000.00,027.7,025.6,000.0,036.1,029.2,21.4,0000.0,0007.28,0003.32,0002.35
2023-09-21 18:06:00,SystemResetWarning,0828.4,5.00,000.00,027.7,025.9,000.0,036.1,029.3,21.3,0000.0,0007.08,0003.30,0002.35
2023-09-21 18:07:00,SystemResetWarning,0828.4,4.99,000.00,027.8,026.1,000.0,036.1,029.3,20.9,0000.0,0007.08,0003.30,0002.33
2023-09-21 18:08:00,SystemResetWarning,0828.3,5.00,000.00,027.8,026.4,000.0,036.1,029.4,21.3,0000.0,0007.09,0003.31,0002.34
2023-09-21 18:09:00,SystemResetWarning,0828.4,4.99,000.00,027.8,026.6,000.0,036.1,029.5,21.5,0000.0,0007.01,0003.31,0002.34
2023-09-21 18:10:00,SystemResetWarning,0828.3,5.00,000.00,027.9,026.7,000.0,036.1,029.5,21.5,0000.0,0006.83,0003.28,0002.33
2023-09-21 18:11:00,SystemResetWarning,0828.4,5.00,000.00,027.9,026.9,000.0,036.2,029.6,21.4,0000.0,0006.96,0003.28,0002.35
2023-09-21 18:12:00,SystemResetWarning,0828.4,4.99,000.00,027.9,026.2,000.0,036.2,029.5,21.6,0000.0,0006.92,0003.24,0002.34
2023-09-21 18:13:00,SystemResetWarning,0828.3,5.00,000.00,027.8,024.6,000.0,036.1,029.0,21.4,0000.0,0007.36,0003.26,0002.35
2023-09-21 18:14:00,SystemResetWarning,0828.3,5.01,000.00,027.7,024.1,000.0,036.1,029.0,21.3,0000.0,0007.74,0003.25,0002.34
2023-09-21 18:15:00,SystemResetWarning,0828.4,5.01,000.00,027.7,024.4,000.0,036.0,029.0,21.7,0000.0,0007.80,0003.28,0002.36
2023-09-21 18:16:00,SystemResetWarning,0828.4,4.99,000.00,027.6,024.7,000.0,036.0,029.0,21.8,0000.0,0007.81,0003.29,0002.34
2023-09-21 18:17:00,SystemResetWarning,0828.4,5.00,000.00,027.6,025.1,000.0,036.0,029.0,21.3,0000.0,0008.03,0003.30,0002.35
2023-09-21 18:18:00,SystemResetWarning,0828.4,5.01,000.00,027.6,025.5,000.0,036.0,029.1,21.4,0000.0,0007.70,0003.29,0002.36
2023-09-21 18:19:00,SystemResetWarning,0828.4,5.00,000.00,027.7,025.8,000.0,036.1,029.2,21.8,0000.0,0007.83,0003.31,0002.36
2023-09-21 18:20:00,SystemResetWarning,0828.4,4.99,000.00,027.7,026.1,000.0,036.1,029.3,21.5,0000.0,0008.17,0003.33,0002.37
2023-09-21 18:21:00,SystemResetWarning,0828.4,5.00,000.00,027.7,026.3,000.0,036.1,029.4,22.9,0000.0,0008.61,0003.36,0002.38
2023-09-21 18:22:00,SystemResetWarning,0828.4,5.00,000.00,027.8,026.5,000.0,036.1,029.5,24.1,0000.0,0008.71,0003.38,0002.36
2023-09-21 18:23:00,SystemResetWarning,0828.4,4.99,000.00,027.8,026.7,000.0,036.1,029.5,24.2,0000.0,0009.04,0003.36,0002.36
2023-09-21 18:24:00,SystemResetWarning,0828.4,5.01,000.00,027.9,026.9,000.0,036.1,029.6,23.4,0000.0,0009.82,0003.33,0002.35
2023-09-21 18:25:00,SystemResetWarning,0828.4,5.01,000.00,027.9,027.0,000.0,036.1,029.7,23.6,0000.0,0009.86,0003.36,0002.36
2023-09-21 18:26:00,SystemResetWarning,0828.4,4.98,000.00,027.9,026.0,000.0,036.1,029.5,23.4,0000.0,0010.41,0003.39,0002.36
2023-09-21 18:27:00,SystemResetWarning,0828.4,5.01,000.00,027.8,024.5,000.0,036.1,029.0,23.5,0000.0,0010.73,0003.43,0002.37
2023-09-21 18:28:00,SystemResetWarning,0828.4,5.02,000.00,027.7,024.2,000.0,036.0,029.0,23.7,0000.0,0010.61,0003.44,0002.37
2023-09-21 18:29:00,SystemResetWarning,0828.4,5.00,000.00,027.7,024.5,000.0,036.0,029.0,24.2,0000.0,0010.78,0003.45,0002.37
2023-09-21 18:30:00,SystemResetWarning,0828.4,5.00,000.00,027.6,024.9,000.0,036.0,029.0,24.9,0000.0,0010.97,0003.44,0002.37
2023-09-21 18:31:00,SystemResetWarning,0828.4,5.00,000.00,027.6,025.2,000.0,036.0,029.1,24.7,0000.0,0010.97,0003.39,0002.37
2023-09-21 18:32:00,SystemResetWarning,0828.4,5.00,000.00,027.7,025.6,000.0,036.0,029.2,24.4,0000.0,0011.10,0003.37,0002.37
2023-09-21 18:33:00,SystemResetWarning,0828.4,5.00,000.00,027.7,025.9,000.0,036.1,029.3,24.7,0000.0,0011.19,0003.34,0002.37
2023-09-21 18:34:00,SystemResetWarning,0828.4,5.00,000.00,027.7,026.1,000.0,036.1,029.3,25.0,0000.0,0011.23,0003.34,0002.35
2023-09-21 18:35:00,SystemResetWarning,0828.4,5.00,000.00,027.8,026.4,000.0,036.1,029.4,24.3,0000.0,0010.50,0003.34,0002.36
2023-09-21 18:36:00,SystemResetWarning,0828.4,5.00,000.00,027.8,026.6,000.0,036.1,029.5,24.1,0000.0,0009.98,0003.33,0002.35
2023-09-21 18:37:00,SystemResetWarning,0828.4,5.00,000.00,027.9,026.7,000.0,036.1,029.5,23.8,0000.0,0009.39,0003.28,0002.35
2023-09-21 18:38:00,SystemResetWarning,0828.4,5.01,000.00,027.9,026.9,000.0,036.2,029.6,23.2,0000.0,0009.33,0003.26,0002.37
2023-09-21 18:39:00,SystemResetWarning,0828.4,4.99,000.00,027.9,026.4,000.0,036.2,029.6,22.9,0000.0,0009.43,0003.28,0002.38
2023-09-21 18:40:00,SystemResetWarning,0828.3,4.99,000.00,027.8,024.8,000.0,036.1,029.1,23.3,0000.0,0010.79,0003.26,0002.38
2023-09-21 18:41:00,SystemResetWarning,0828.3,5.01,000.00,027.7,024.1,000.0,036.0,029.0,23.7,0000.0,0011.07,0003.24,0002.39
2023-09-21 18:42:00,SystemResetWarning,0828.4,5.01,000.00,027.7,024.3,000.0,036.0,029.0,23.7,0000.0,0011.02,0003.27,0002.41
2023-09-21 18:43:00,SystemResetWarning,0828.3,4.99,000.00,027.6,024.6,000.0,036.0,029.0,24.1,0000.0,0011.02,0003.32,0002.43
2023-09-21 18:44:00,SystemResetWarning,0828.3,5.00,000.00,027.6,025.0,000.0,036.0,029.1,24.0,0000.0,0010.85,0003.35,0002.43
2023-09-21 18:45:00,SystemResetWarning,0828.3,5.01,000.00,027.6,025.4,000.0,036.0,029.1,24.0,0000.0,0011.05,0003.37,0002.46
2023-09-21 18:46:00,SystemResetWarning,0828.3,5.01,000.00,027.7,025.7,000.0,036.0,029.2,24.2,0000.0,0011.47,0003.39,0002.49
2023-09-21 18:47:00,SystemResetWarning,0828.4,4.99,000.00,027.7,026.0,000.0,036.0,029.3,24.5,0000.0,0012.02,0003.41,0002.52
2023-09-21 18:48:00,SystemResetWarning,0828.3,5.00,000.00,027.7,026.3,000.0,036.0,029.4,24.9,0000.0,0012.28,0003.44,0002.55
2023-09-21 18:49:00,SystemResetWarning,0828.3,4.99,000.00,027.8,026.5,000.0,036.1,029.5,24.1,0000.0,0012.57,0003.45,0002.54
2023-09-21 18:50:00,SystemResetWarning,0828.3,5.00,000.00,027.8,026.7,000.0,036.1,029.5,23.8,0000.0,0012.48,0003.48,0002.55
2023-09-21 18:51:00,SystemResetWarning,0828.3,5.01,000.00,027.9,026.9,000.0,036.1,029.6,23.7,0000.0,0011.55,0003.51,0002.58
2023-09-21 18:52:00,SystemResetWarning,0828.3,5.00,000.00,027.9,027.0,000.0,036.1,029.7,23.9,0000.0,0011.08,0003.55,0002.60
2023-09-21 18:53:00,SystemResetWarning,0828.3,4.99,000.00,028.0,026.3,000.0,036.2,029.6,23.4,0000.0,0011.26,0003.59,0002.60
2023-09-21 18:54:00,SystemResetWarning,0828.3,4.99,000.00,027.8,024.7,000.0,036.1,029.1,23.0,0000.0,0010.85,0003.59,0002.61
2023-09-21 18:55:00,SystemResetWarning,0828.2,5.00,000.00,027.7,024.1,000.0,036.1,029.0,23.4,0000.0,0010.73,0003.57,0002.64
2023-09-21 18:56:00,SystemResetWarning,0828.3,5.01,000.00,027.7,024.3,000.0,036.0,029.0,24.1,0000.0,0010.39,0003.57,0002.65
2023-09-21 18:57:00,SystemResetWarning,0828.3,5.01,000.00,027.6,024.7,000.0,036.0,029.0,24.1,0000.0,0010.34,0003.56,0002.65
2023-09-21 18:58:00,SystemResetWarning,0828.3,4.99,000.00,027.6,025.1,000.0,036.0,029.1,24.5,0000.0,0009.81,0003.55,0002.64
2023-09-21 18:59:00,SystemResetWarning,0828.3,5.00,000.00,027.6,025.4,000.0,036.0,029.2,23.8,0000.0,0010.06,0003.59,0002.64
